Regional Weather Roundup
Issued by NWS

Home | Current Version | Previous Version | Text Only | Print | Product List | Glossary Off
Versions: 1 2 3 4 5 6 7 8 9 10 11 12 13 14 15 16 17 18 19 20 21 22 23 24 25 26 27 28 29 30 31 32 33 34 35 36 37 38 39 40 41 42 43 44 45 46 47 48 49 50

000
ASUS45 KTFX 212210
RWRMT
MONTANA REGIONAL WEATHER ROUNDUP
NATIONAL WEATHER SERVICE GREAT FALLS MT
400 PM MDT THU MAY 21 2015

NOTE: "FAIR" INDICATES FEW OR NO CLOUDS BELOW 12000 FEET WITH NO
SIGNIFICANT WEATHER AND/OR OBSTRUCTIONS TO VISIBILITY.

MTZ001>007-043-212300-
WEST OF THE DIVIDE

CITY           SKY/WX    TMP DP  RH WIND       PRES   REMARKS
KALISPELL      CLEAR     78  30  17 VRB3      29.87F
MISSOULA       MOSUNNY   76  33  21 VRB3      29.84F
BUTTE          MOSUNNY   59  37  44 S12       29.97F
MULLAN PASS    CLOUDY    57  34  41 CALM      29.98F
DEER LODGE       N/A     64  39  39 E17G24    29.97F
EUREKA           N/A     77  30  18 SW5       29.87F
HAMILTON         N/A     64  43  45 SE13      29.91R
LIBBY            N/A     79  32  18 N7        29.84F
RONAN            N/A     74  35  24 N9        29.93F
THOMPSON FALLS   N/A     80  36  20 E9        29.86F
$$

MTZ008-052>055-212300-
SOUTHWEST MONTANA

CITY           SKY/WX    TMP DP  RH WIND       PRES   REMARKS
BOZEMAN        PTSUNNY   63  46  54 SE17      29.96F
DILLON         PTSUNNY   55  42  61 CALM      29.96F
W YELLOWSTONE  CLOUDY    46  41  81 CALM      30.04F
THREE FORKS      N/A     65  48  53 NE8       29.96S
TWIN BRIDGES     N/A     67  36  31 S2        29.95F
$$

MTZ009-010-012-014-046-048-049-054-212300-
EAST SLOPES AND CENTRAL MONTANA

CITY           SKY/WX    TMP DP  RH WIND       PRES   REMARKS
CUT BANK       SUNNY     67  24  19 SE8       29.99F
GREAT FALLS    SUNNY     69  37  30 E6        29.96F
MALMSTROM AFB  SUNNY     69  40  35 E12       29.96F
HELENA         MOSUNNY   71  39  31 E18G24    29.93F
CONRAD           N/A     68  33  27 NE13      30.01F
$$

MTZ011-013-016-021-045-047-050-051-212300-
NORTH CENTRAL MONTANA

CITY           SKY/WX    TMP DP  RH WIND       PRES   REMARKS
HAVRE          SUNNY     72  26  18 SE18G26   30.00F
LEWISTOWN      SUNNY     67  34  29 E18       30.01F
N BAR RANCH    FAIR      61  32  33 SE10G23   30.08F
CHINOOK          N/A     72  28  20 E16G22    30.02F
FORT BENTON      N/A     72  37  28 NE14      29.97F
$$

MTZ017>020-022>027-061-062-212300-
NORTHEAST MONTANA

CITY           SKY/WX    TMP DP  RH WIND       PRES   REMARKS
GLASGOW        SUNNY     72  30  21 S22G29    30.09F
JORDAN           N/A     70  25  18 SE16G29   30.07F
SIDNEY         SUNNY     73  34  23 SE7       30.13F
WOLF POINT     SUNNY     74  33  22 SE12      30.11F
MALTA            N/A     71  33  24 E12       30.03F
PLENTYWOOD       N/A     73  28  19 SE7       30.12F
POPLAR           N/A     72  28  20 SE12G18   30.12F
$$

MTZ028>42-056>058-212300-
SOUTHCENTRAL AND SOUTHEAST MONTANA

CITY           SKY/WX    TMP DP  RH WIND       PRES   REMARKS
BAKER          SUNNY     69  32  25 SE16G24   30.14F
BILLINGS       MOSUNNY   67  37  33 E12G23    30.02F
LIVINGSTON     PTSUNNY   61  41  47 E17       29.99S
MILES CITY     SUNNY     71  25  17 SE10G24   30.07F
BIG TIMBER       N/A     63  41  45 E14G20    30.01F
FORSYTH          N/A     70  27  19 E15G23    30.05F
LAUREL           N/A     66  37  34 NE6       30.00F
ROUNDUP          N/A     68  32  26 E7        29.94F
$$

REGIONAL REPORTS...DAKOTAS

CITY           SKY/WX    TMP DP  RH WIND       PRES   REMARKS
WILLISTON      SUNNY     75  29  18 VRB5      30.12F
MINOT          SUNNY     73  32  22 NE5       30.11F
DICKINSON      MOSUNNY   70  31  23 SE8       30.13F
BEACH          FAIR      68  28  22 S12G20    30.15F
CROSBY         FAIR      72  27  18 NW8       30.13F HAZE
WATFORD CITY   FAIR      72  28  20 S6        30.11S
BISMARCK       MOSUNNY   75  29  18 N3        30.11F
GRAND FORKS    SUNNY     68  37  32 N9        30.12F
FARGO          SUNNY     70  38  31 NW12      30.11F
BUFFALO SD       N/A     67  29  24 SE15      30.09F
RAPID CITY     SUNNY     63  34  33 SE16      30.16F
$$

REGIONAL REPORTS...WYOMING/IDAHO/WASHINGTON

CITY           SKY/WX    TMP DP  RH WIND       PRES   REMARKS
GILLETTE       MOSUNNY   58  41  53 SE15G24   30.11F
SHERIDAN       PTSUNNY   60  40  47 SE16G25   30.05F
BUFFALO WY     PTSUNNY   56  41  57 SE15      30.10F
CODY           MOSUNNY   59  41  51 CALM      30.03F
YELLOWSTONE LA   N/A     49  35  58 CALM      30.10R
IDAHO FALLS    PTSUNNY   65  39  38 E7        29.92F
SALMON         CLOUDY    61  46  59 SW14      29.93S
BOISE          PTSUNNY   70  47  43 VRB3      29.83F
SPOKANE        PTSUNNY   80  38  22 N8        29.82F
$$

REGIONAL REPORTS...ALBERTA

CITY           SKY/WX    TMP DP  RH WIND       PRES   REMARKS
EDMONTON       SUNNY     73  28  19 SE13      29.97F
CALGARY        MOSUNNY   70  19  14 S18       29.99F
LETHBRIDGE     MOSUNNY   72  34  25 SE9G24    29.97F
MEDICINE HAT   SUNNY     75  21  13 S17       30.00F
$$

REGIONAL REPORTS...SASKATCHEWAN

CITY           SKY/WX    TMP DP  RH WIND       PRES   REMARKS
SWIFT CURRENT  SUNNY     72  27  18 SE17G30   30.09F
REGINA         MOSUNNY   73  28  19 S7        30.11F
SASKATOON      MOSUNNY   75  28  17 SW5G21    30.10F
$$


USA.gov is the U.S. government's official web portal to all federal, state and local government web resources and services.